Skip Page Navigation
NASA JPL Caltech
NASA Logo - Jet Propulsion Laboratory + View the NASA Portal
+ Center for Near-Earth Object Studies
JPL Home Earth Solar System Stars & Galaxies Technology
JPL Solar System Dynamics
BODIES ORBITS EPHEMERIDES TOOLS PHYSICAL DATA DISCOVERY FAQ SITE MAP
IMPORTANT: The SSD Announcement email list is now available. Major changes are coming in the near future, including possible hostname and/or URL changes. To be notified of such changes, subscribe to this email list.

Please visit this page for more details.


JPL Small-Body Database Browser
Search: [ help ]  
117302 (2004 VP5)
Classification: Outer Main-belt Asteroid          SPK-ID: 2117302
Ephemeris | Orbit Diagram | Orbital Elements | Mission Design | Physical Parameters | Discovery Circumstances | Close-Approach Data ]

[ show orbit diagram ]
Orbital Elements at Epoch 2458600.5 (2019-Apr-27.0) TDB
Reference: JPL 15 (heliocentric ecliptic J2000)
 Element Value Uncertainty (1-sigma)   Units 
e .1877017720699962 6.2009e-08  
a 3.213636246171616 3.713e-08 au
q 2.610431027976833 2.1062e-07 au
i 7.84458015893375 5.5643e-06 deg
node 287.7817377515643 5.1237e-05 deg
peri 36.46601646492527 5.3367e-05 deg
M 247.3424657175303 1.6624e-05 deg
tp 2459258.993122504311
(2021-Feb-13.49312250)
0.00010102 TDB
period 2104.231426787404
5.76
3.6468e-05
9.984e-08
d
yr
n .1710838434485427 2.965e-09 deg/d
Q 3.816841464366398 4.4099e-08 au
  Orbit Determination Parameters
   # obs. used (total)      555  
   data-arc span      7490 days (20.51 yr)  
   first obs. used      1998-10-29  
   last obs. used      2019-05-02  
   planetary ephem.      DE431  
   SB-pert. ephem.      SB431-N16  
   condition code      0  
   norm. resid. RMS      .53423  
   source      ORB  
   producer      Otto Matic  
   solution date      2019-May-30 06:54:38  

Additional Information
 Earth MOID = 1.60222 au 
 Jupiter MOID = 1.53433 au 
 T_jup = 3.149 
[ show covariance matrix ]

Ephemeris | Orbit Diagram | Orbital Elements | Mission Design | Physical Parameters | Discovery Circumstances | Close-Approach Data ]

Physical Parameter Table
Parameter Symbol Value Units Sigma Reference Notes
absolute magnitude H 14.4   n/a MPO348190  

117302 (2004 VP5)          Discovered 2004-Nov-03 by LONEOS at Anderson Mesa
Reference: 20051019/Numbers.arcLast Updated: 2005-10-26

[ show close-approach data ]
Alternate Designations
 2004 VP5 = 2003 OR1 
Ephemeris | Orbit Diagram | Orbital Elements | Mission Design | Physical Parameters | Discovery Circumstances | Close-Approach Data ]
ABOUT SSD CREDITS/AWARDS PRIVACY/COPYRIGHT GLOSSARY LINKS
FirstGov 2019-Dec-09 10:52 UT
(server date/time)  
NASA Home Page
Site Manager:   Ryan S. Park
Webmaster  Alan B. Chamberlin